weather.gov     
National Weather Service

Terminal Aerodrome Forecast
NWS Homepage
This page is being discontinued on March 12, 2014.
The same data is available at this site. Please update your bookmarks.
Thank you, and we apologize for the inconvenience.
Please send an email to SR-SRH.Webmaster@noaa.gov with any concerns.


Current Version
Previous Version:    01  02  03  04  05  06  07  08  09  10  11  12  13  14  15  16  17  18  19  20  21  22  23  24  25  26  27  28  29  30  
   31  32  33  34  35  36  37  38  39  40  41  
[Printable]
009
FTUS46 KEKA 241741
TAFCEC
TAF
KCEC 241741Z 2418/2518 11009KT P6SM -RA SCT007 SCT020 OVC035
     FM242000 16012KT P6SM SCT020 SCT035 BKN060
      TEMPO 2420/2424 16013G19KT P6SM BKN035
     FM250600 15015KT P6SM -RA SCT025 OVC050 WS010/18030KT
     FM250800 14015G20KT 4SM -RA BR BKN025 OVC035 WS010/18030KT=


009
FTUS46 KEKA 241741
TAFCEC
TAF
KCEC 241741Z 2418/2518 11009KT P6SM -RA SCT007 SCT020 OVC035
     FM242000 16012KT P6SM SCT020 SCT035 BKN060
      TEMPO 2420/2424 16013G19KT P6SM BKN035
     FM250600 15015KT P6SM -RA SCT025 OVC050 WS010/18030KT
     FM250800 14015G20KT 4SM -RA BR BKN025 OVC035 WS010/18030KT=




U.S. Dept. of Commerce
NOAA National Weather Service
1325 East West Highway
Silver Spring, MD 20910
E-mail: w-nws.webmaster@noaa.gov
Page last modified: May 16, 2007
NATIONAL WEATHER SERVICE: for Safety, for Work, for Fun - FOR LIFE